Fort Rucker / Ozark, AL

12:02 PM CDT on June 29, 2017 (GMT -0500)
Fort Rucker / Ozark

Weather History for KHEY - May, 2014

Change the Weather History Date:

Saturday, May 3, 2014

  Actual Average (KOZR) Record (KOZR)
Temperature  
Mean Temperature 66 °F -  
Max Temperature 79 °F 79 °F 89 °F (2002)
Min Temperature 54 °F 57 °F 46 °F (2004)
Cooling Degree Days 2    
Growing Degree Days 16 (Base 50)    
Moisture  
Dew Point 46 °F    
Average Humidity 56    
Maximum Humidity 86    
Minimum Humidity 27    
Precipitation  
Precipitation 0.00 in - - ()
Sea Level Pressure  
Sea Level Pressure 29.70 in    
Wind  
Wind Speed 5 mph (NNW)    
Max Wind Speed 14 mph    
Max Gust Speed 21 mph    
Visibility 10 miles    
Events      
Averages and records for this station are not official NWS values.
T = Trace of Precipitation, MM = Missing Value Source: NWS Daily Summary

Daily Weather History Graph

Daily Weather History Graph

Search for Another Location

Airport or City:

Trip Planner

Search our weather history database for the weather conditions in past years. The results will help you decide how hot, cold, wet, or windy it might be!

Date:

Astronomy

May. 03, 2014 Rise Set
Actual Time 5:55 AM CDT 7:23 PM CDT
Civil Twilight 5:30 AM CDT 7:49 PM CDT
Nautical Twilight 4:59 AM CDT 8:20 PM CDT
Astronomical Twilight 4:26 AM CDT 8:52 PM CDT
Moon 9:28 AM CDT (5/3) 11:27 PM CDT (5/3)
Length of Visible Light 14h 19m
Length of Day
13h 27m
Waxing Crescent, 20% of the Moon is Illuminated
May 3
Waxing Crescent
May 6
First Quarter
May 14
Full
May 21
Last Quarter
May 28
New

Hourly Weather History & Observations

Time (CDT) Temp. Dew Point Humidity Pressure Visibility Wind Dir Wind Speed Gust Speed Precip Events Conditions
12:53 AM 59.0 °F 50.0 °F 72% 29.64 in 10.0 mi Calm Calm - N/A   Mostly Cloudy
1:53 AM 60.1 °F 48.9 °F 67% 29.64 in 10.0 mi NW 3.5 mph - N/A   Partly Cloudy
2:53 AM 55.9 °F 51.1 °F 84% 29.65 in 10.0 mi Calm Calm - N/A   Clear
3:53 AM 54.0 °F 50.0 °F 86% 29.67 in 10.0 mi NW 4.6 mph - N/A   Clear
4:53 AM 54.0 °F 48.0 °F 80% 29.65 in 10.0 mi NNW 5.8 mph - N/A   Clear
5:53 AM 55.0 °F 46.9 °F 74% 29.66 in 10.0 mi NNW 5.8 mph - N/A   Clear
6:53 AM 55.0 °F 48.0 °F 77% 29.68 in 10.0 mi NNW 4.6 mph - N/A   Clear
7:53 AM 61.0 °F 46.9 °F 60% 29.70 in 10.0 mi North 4.6 mph - N/A   Clear
8:53 AM 66.0 °F 46.0 °F 48% 29.73 in 10.0 mi Calm Calm - N/A   Clear
9:53 AM 71.1 °F 43.0 °F 36% 29.73 in 10.0 mi North 13.8 mph - N/A   Clear
10:53 AM 72.0 °F 39.9 °F 31% 29.74 in 10.0 mi NNW 8.1 mph 19.6 mph N/A   Clear
11:53 AM 75.0 °F 41.0 °F 29% 29.73 in 10.0 mi NNE 11.5 mph 19.6 mph N/A   Clear
12:53 PM 75.9 °F 41.0 °F 29% 29.72 in 10.0 mi NNW 12.7 mph - N/A   Clear
1:53 PM 77.0 °F 41.0 °F 28% 29.70 in 10.0 mi North 12.7 mph 20.7 mph N/A   Partly Cloudy
2:53 PM 78.1 °F 41.0 °F 27% 29.68 in 10.0 mi NNW 11.5 mph - N/A   Partly Cloudy
3:53 PM 79.0 °F 42.1 °F 27% 29.67 in 10.0 mi NNW 9.2 mph - N/A   Clear
4:53 PM 77.0 °F 41.0 °F 28% 29.67 in 10.0 mi NNW 12.7 mph - N/A   Clear
5:53 PM 77.0 °F 44.1 °F 31% 29.68 in 10.0 mi NW 5.8 mph - N/A   Clear
6:53 PM 73.9 °F 45.0 °F 35% 29.69 in 10.0 mi NW 4.6 mph - N/A   Clear
7:53 PM 64.9 °F 51.1 °F 61% 29.71 in 10.0 mi Calm Calm - N/A   Clear
8:53 PM 60.1 °F 51.1 °F 72% 29.73 in 10.0 mi WNW 3.5 mph - N/A   Clear
9:53 PM 57.0 °F 52.0 °F 83% 29.75 in 10.0 mi Calm Calm - N/A   Clear
10:53 PM 57.0 °F 52.0 °F 83% 29.75 in 10.0 mi Calm Calm - N/A   Clear
11:53 PM 55.0 °F 51.1 °F 86% 29.75 in 10.0 mi Calm Calm - N/A   Clear